Regional Weather Roundup
Issued by NWS Upton, NY

Current Version | Previous Version | Graphics & Text | Print | Product List | Glossary Off
Versions: 1 2 3 4 5 6 7 8 9 10 11 12 13 14 15 16 17 18 19 20 21 22 23 24 25 26 27 28 29 30 31 32 33 34 35 36 37 38 39 40 41 42 43 44 45 46 47 48 49 50

000
ASUS41 KOKX 020108
RWROKX

REGIONAL WEATHER ROUNDUP
NATIONAL WEATHER SERVICE NEW YORK NY
900 PM EDT MON JUN 01 2015

NOTE: "FAIR" INDICATES FEW OR NO CLOUDS BELOW 12,000 FEET WITH NO
SIGNIFICANT WEATHER AND/OR OBSTRUCTIONS TO VISIBILITY.

NYZ071-072-176-178-NJZ106-104-020200-
NEW YORK CITY METRO AREA


CITY           SKY/WX    TMP DP  RH WIND       PRES   REMARKS
CENTRAL PARK   CLOUDY    54  51  90 E17       30.16R FOG
LAGUARDIA APRT DRIZZLE   54  52  93 NE17      30.14R FOG
KENNEDY INTL   DRIZZLE   55  52  89 NE16      30.14R FOG
NEWARK/LIBERTY LGT RAIN  55  54  95 NE12      30.14R FOG
BRNX BOT. GARD   N/A     52  50  93 N7        30.16R
TETERBORO      LGT RAIN  54  51  90 E7        30.13R
$$

NYZ177-179-078>081-020200-
LONG ISLAND NEW YORK

CITY           SKY/WX    TMP DP  RH WIND       PRES   REMARKS
FARMINGDALE    CLOUDY    52  50  93 NE12G21   30.13R FOG
ISLIP          DRIZZLE   51  49  92 NE14      30.12R FOG
SHIRLEY        LGT RAIN  51  49  92 VRB5      30.15R FOG
WESTHAMPTON    LGT RAIN  51  50  96 NE10      30.16R
MONTAUK POINT    N/A     51  48  89 NE13G21   30.17S
$$

NYZ052-065-067-020200-
HUDSON VALLEY

CITY           SKY/WX    TMP DP  RH WIND       PRES   REMARKS
WHITE PLAINS   LGT RAIN  50  49  96 NE10G17   30.14R FOG
NEWBURGH       LGT RAIN  50  50 100 E12       30.17  FOG
MONTGOMERY     LGT RAIN  52  51  97 NE9       30.16R
POUGHKEEPSIE   RAIN      52  49  89 NE8       30.17R FOG
ALBANY         DRIZZLE   53  48  83 CALM      30.19R
$$

NJZ001-105-106-008-010-013-015-019>022-104-020200-
NEW JERSEY

CITY           SKY/WX    TMP DP  RH WIND       PRES   REMARKS
NEWARK/LIBERTY LGT RAIN  55  54  95 NE12      30.14R FOG
TETERBORO      LGT RAIN  54  51  90 E7        30.13R
CALDWELL       LGT RAIN  54  51  90 E6        30.15R FOG
MORRISTOWN     LGT RAIN  61  59  94 NE10      30.15R FOG
SOMERVILLE     LGT RAIN  56  53  90 NE7       30.11R FOG
SUSSEX         LGT RAIN  52  50  93 NE12      30.15S
ANDOVER          N/A     53  52  96 NE3       30.14R
TRENTON        RAIN      57  55  93 E10       30.09R
MILLVILLE      LGT RAIN  65  64  97 E10       30.03S
ATLANTIC CITY  LGT RAIN  60  58  92 VRB5      30.08R
WRIGHTSTOWN    RAIN      57  55  94 NE12      30.07S FOG
TOMS RIVER     CLOUDY   N/A N/A N/A NE13      30.09S
BELMAR         CLOUDY    55  48  76 NE16G22   30.11R
$$

PAZ047>061-062-071-020200-
EASTERN PENNSYLVANIA

CITY           SKY/WX    TMP DP  RH WIND       PRES   REMARKS
PHILADELPHIA   TSTM      61  58  90 NE10G21   30.05F FOG
ALLENTOWN      CLOUDY    58  55  90 E10       30.11R
SCRANTON       CLOUDY    57  52  83 VRB5      30.11R
$$

CTZ002-004>006-009-010-012-RIZ004-006-007-MAZ004-011-015-020200-
SOUTHERN NEW ENGLAND
 IN CT

CITY           SKY/WX    TMP DP  RH WIND       PRES   REMARKS
BRADLEY INTL   LGT RAIN  48  45  89 N10       30.21R
HARTFORD       LGT RAIN  49  46  90 N9        30.21R
DANBURY        CLOUDY    49  45  86 E7        30.16S FOG
WTRBRY/OXFORD  DRIZZLE   48  39  71 NE13G22   30.17S FOG
BRIDGEPORT     LGT RAIN  52  49  89 NE14      30.16R
MERIDEN        LGT RAIN  49  46  90 N9G20     30.19R FOG
NEW HAVEN      CLOUDY    50  48  93 NE8G20    30.17R
CHESTER        CLOUDY    48  46  93 NE8       30.18R
GROTON         RAIN      49  46  90 NE12      30.16S FOG
WILLIMANTIC    CLOUDY    48  45  89 NE10      30.20R

 IN RI

CITY           SKY/WX    TMP DP  RH WIND       PRES   REMARKS
PROVIDENCE     LGT RAIN  48  46  93 NE13      30.21S FOG
BLOCK ISLAND   CLOUDY    50  45  81 NE17G25   30.17R
WESTERLY       HVY RAIN  48  46  93 NE13      30.17S FOG

 IN MA

CITY           SKY/WX    TMP DP  RH WIND       PRES   REMARKS
BOSTON         LGT RAIN  47  46  97 NE15G24   30.26R FOG
WORCESTER      RAIN      45  42  89 NE14G22   30.22S
WESTFIELD      LGT RAIN  48  45  89 N9        30.23R
PROVINCETOWN   CLOUDY    48  45  87 NE13G22   30.22S
NANTUCKET      CLOUDY    52  50  93 NE18      30.16S FOG
$$

ANZ330-335-338-340-345-350-353-355-020200-
COASTAL MARINE OBSERVATIONS


STATION/POSITION TIME  SKY/WX   TEMP    WIND        PRES    VSBY  WAVE
                                AIR SEA DIR/SP/G                  HT/PER
                 (UTC)          (F)     (DEG/KT/KT) (MB)    (MI)  (FT/S)
NY HARB ENTRANCE 0050            55 60   70/ 23/ 29 1018.3          7/ 6
4S FIRE IS       0003               55                N/A           6/ 6
20S FIRE ISLAND  0050            55 60   70/ 25/ 29 1018.0          7/ 6
GREAT SOUTH BAY  NOT AVBL
23SW MTP         0050            53 56   50/ 21/ 25 1020.0          7/ 6
HUDSON CANYON    NOT AVBL
KINGS POINT      0000            54 56   40/  4/  8 1019.3
CENTRAL LI SOUND 0000            52 56   60/ 17/ 21   N/A
EASTERN LI SOUND 0000            50      50/ 16/ 21   N/A
ROBBINS REEF     0000            55      40/ 15/ 17 1018.2
$$


>>>>>>>>>>>>>>>>>>>>>>>>>>>> KEY <<<<<<<<<<<<<<<<<<<<<<<<<<<
>                                                          <
>     SKY/WX - SKY CONDITION/PRESENT WEATHER               <
>     TMP    - TEMPERATURE IN FAHRENHEIT                   <
>     DP     - DEWPOINT IN FAHRENHEIT                      <
>     RH     - RELATIVE HUMIDITY IN PERCENT                <
>     WIND   - DIRECTION AND SPEED IN MPH                  <
>     PRES   - MEAN SEA LEVEL PRESSURE IN INCHES OF HG     <
>     WCI    - WIND CHILL INDEX                            <
>     VSB    - VISIBILITY IN MILES                         <
>     HX     - HEAT INDEX                                  <
>     TC     - TEMPERATURE IN CELSIUS                      <
>     VRB    - VARIABLE WIND DIRECTION                     <
>                                                          <
>>>>>>>>>>>>>>>>>>>>>>>>>>>> KEY <<<<<<<<<<<<<<<<<<<<<<<<<<<





USA.gov is the U.S. government's official web portal to all federal, state and local government web resources and services.